Flag for Iran Weather past 2 weeks in Bandar-Abbas, Iran

Now
90 °F

Haze.


Feels Like: 108 °F
Forecast: 80 / 96 °F
Wind: 2 mph from North

Location: Bandarabbass

Current Time: Sep 30, 2014 at 9:56:41 AM

Latest Report: Sep 30, 2014 at 9:00 AM


Visibility: 3 mi

Pressure: 29.83 "Hg

Humidity: 75%

Dew point: 81 °F

Location of Bandar-AbbasLocation

Historic Weather in Bandar-Abbas — Graph

°F

Bandar-Abbas temperature yesterday

Maximum temperature yesterday: 93 °F (at 10:00 AM)
Minimum temperature yesterday: 79 °F (at 5:30 AM)
Average temperature yesterday: 88 °F

Past Weeks' High & Low Weather Summary

 TemperatureHumidityPressure
High97 °F (Sep 18, 1:30 PM)89% (Sep 16, 5:30 AM)29.89 "Hg (Sep 16, 5:30 AM)
Low79 °F (Sep 29, 5:30 AM)59% (Sep 22, 10:00 AM)29.56 "Hg (Sep 17, 4:00 PM)
Average89 °F75%29.70 "Hg
* Reported Sep 15 9:30 AM — Sep 30 8:30 AM, Bandar-Abbas, Weather by CustomWeather, © 2014

Note: Actual official high and low records may vary slightly from our data, if they occured in-between our weather recording intervals... More about our weather records

Advertising

Bandar-Abbas weather history for previous 24 hours

 ConditionsComfort  
Time TempWeatherWind HumidityBarometerVisibility
8:30 AM
Sep 30
90 °FHaze.2 mph75%29.83 "Hg3 mi
8:00 AM88 °FClear.5 mph75%29.86 "Hg4 mi
7:30 AM84 °FClear.7 mph79%29.83 "Hg4 mi
7:00 AM82 °FClear.5 mph84%29.83 "Hg4 mi
6:30 AM81 °FClear.7 mph84%29.83 "Hg4 mi
6:00 AM79 °FClear.7 mph89%29.80 "Hg4 mi
5:30 AM79 °FClear.5 mph89%29.80 "Hg4 mi
4:20 AM81 °FClear.7 mph84%29.80 "Hg4 mi
3:30 AM81 °FClear.7 mph84%29.77 "Hg4 mi
2:30 AM81 °FClear.5 mph84%29.80 "Hg4 mi
1:30 AM82 °FClear.5 mph79%29.77 "Hg4 mi
1:00 AM82 °FClear.5 mph79%29.77 "Hg4 mi
12:30 AM82 °FClear.7 mph79%29.80 "Hg5 mi
12:00 AM82 °FClear.5 mph79%29.80 "Hg5 mi
11:30 PM
Sep 29
82 °FClear.5 mph79%29.80 "Hg5 mi
10:55 PM84 °FClear.7 mph74%29.80 "Hg5 mi
10:20 PM84 °FClear.7 mph79%29.80 "Hg5 mi
10:00 PM86 °FClear.7 mph75%29.80 "Hg5 mi
9:30 PM88 °FClear.7 mph75%29.80 "Hg5 mi
9:00 PM88 °FClear.5 mph75%29.77 "Hg10 mi
8:30 PM88 °FClear.5 mph75%29.77 "Hg10 mi
8:00 PM88 °FClear.7 mph70%29.77 "Hg10 mi
7:30 PM88 °FClear.5 mph70%29.77 "Hg10 mi
7:00 PM88 °FClear.7 mph70%29.77 "Hg10 mi
6:30 PM88 °FClear.9 mph70%29.77 "Hg10 mi
6:00 PM88 °FSunny.12 mph70%29.77 "Hg10 mi
5:30 PM88 °FSunny.9 mph70%29.77 "Hg10 mi
5:00 PM90 °FSunny.12 mph71%29.77 "Hg10 mi
4:30 PM90 °FSunny.14 mph71%29.77 "Hg10 mi
4:00 PM91 °FSunny.12 mph63%29.77 "Hg10 mi
3:20 PM93 °FSunny.14 mph63%29.77 "Hg10 mi
3:00 PM93 °FSunny.12 mph63%29.77 "Hg10 mi
2:30 PM93 °FSunny.12 mph59%29.77 "Hg10 mi
2:00 PM93 °FSunny.16 mph63%29.80 "Hg5 mi
1:30 PM93 °FSunny.12 mph59%29.80 "Hg5 mi
1:00 PM93 °FSunny.9 mph59%29.80 "Hg5 mi
12:30 PM93 °FSunny.12 mph63%29.83 "Hg5 mi
12:00 PM91 °FPassing clouds.12 mph63%29.86 "Hg5 mi
11:30 AM91 °FPassing clouds.12 mph67%29.86 "Hg5 mi
11:00 AM93 °FPassing clouds.9 mph59%29.89 "Hg5 mi
10:30 AM93 °FPassing clouds.7 mph59%29.89 "Hg4 mi
10:00 AM93 °FPassing clouds.7 mph59%29.89 "Hg4 mi
9:30 AM90 °FScattered clouds.5 mph67%29.89 "Hg4 mi
9:00 AM90 °FPartly sunny.7 mph67%29.89 "Hg4 mi
Weather by CustomWeather, © 2014

See weather overviewHow to use our weather pages